Regional Weather Roundup
Issued by NWS State College, PA

Home | Current Version | Previous Version | Text Only | Print | Product List | Glossary On
Versions: 1 2 3 4 5 6 7 8 9 10 11 12 13 14 15 16 17 18 19 20 21 22 23 24 25 26 27 28 29 30 31 32 33 34 35 36 37 38 39 40 41 42 43 44 45 46 47 48 49 50
000
ASUS41 KCTP 220510
RWRCTP

REGIONAL WEATHER ROUNDUP
NATIONAL WEATHER SERVICE STATE COLLEGE PA
100 AM EDT WED MAY 22 2019

Note: "fair" indicates few or no clouds below 12,000 feet with no
significant weather and/or obstructions to visibility.

* = STATION THAT DOES NOT REPORT PRECIPITATION /E.G. RAIN...SNOW...ETC/
    THUNDER OR FOG.

PAZ002>004-007>009-013>016-020>023-029>032-220600-
WESTERN PENNSYLVANIA

CITY           SKY/WX    TMP DP  RH WIND       PRES   REMARKS
ERIE           FAIR      48  42  80 E3        30.19S
MEADVILLE      FAIR      50  35  56 E5        30.18S
FRANKLIN*      FAIR      48  36  63 E5        30.19S
NEW CASTLE     FAIR      46  42  86 E3        30.17F
BEAVER COUNTY  NOT AVBL
BUTLER*        FAIR      44  43  96 NE3       30.18S
PITTSBURGH INT MOCLDY    51  45  79 CALM      30.15F
PITTSBURGH     FAIR      52  43  71 E5        30.15S
INDIANA*       CLEAR     46  45  93 CALM      30.22R
LATROBE        FAIR      48  48 100 CALM      30.18R
WASHINGTON CO* NOT AVBL
$$

PAZ004>006-010>012-017>019-024>028-033>037-041-042-045-046-049>053-220600-
CENTRAL PENNSYLVANIA

CITY           SKY/WX    TMP DP  RH WIND       PRES   REMARKS
BRADFORD       FAIR      38  36  92 CALM      30.20S
DUBOIS         FAIR      47  34  60 E5        30.18R
CLEARFIELD     FAIR      47  38  71 NW3       30.20R
JOHNSTOWN      FAIR      50  40  68 CALM      30.18R
ALTOONA        FAIR      50  43  77 CALM      30.19R
STATE COLLEGE  FAIR      50  38  64 N5        30.18S
WILLIAMSPORT   FAIR      47  40  76 CALM      30.18R
SELINSGROVE    FAIR      48  42  80 NW3       30.19R
FT INDIANTOWN  FAIR      55  38  52 SE5       30.17R
CAPITAL CITY   FAIR      55  42  61 CALM      30.17R
HARRISBURG     FAIR      56  43  61 W3        30.16R
YORK           FAIR      51  46  83 CALM      30.17R
$$

PAZ038>040-043-044-047-048-054-055-060>062-067>071-220600-
EASTERN PENNSYLVANIA

CITY           SKY/WX    TMP DP  RH WIND       PRES   REMARKS
SCRANTON       FAIR      50  39  66 N6        30.17R
MOUNT POCONO   FAIR      47  37  68 NW12      30.15R
ALLENTOWN      FAIR      54  38  54 NW6       30.16R
QUAKERTOWN*    CLEAR     52  39  62 NW7       30.16R
READING        FAIR      54  42  64 N7        30.15R
LANCASTER      FAIR      56  39  53 NE5       30.16R
COATESVILLE    FAIR      55  37  50 NE3       30.17R
POTTSTOWN      FAIR      52  38  58 N3        30.17R
BLUE BELL      NOT AVBL
DOYLESTOWN     FAIR      54  38  54 N7        30.14S
WILLOW GROVE   NOT AVBL
NORTH PHILA    FAIR      58  37  45 N5        30.15S
PHILADELPHIA   FAIR      61  36  39 N8        30.15R
$$



USA.gov is the U.S. government's official web portal to all federal, state and local government web resources and services.